User: anonymous   Login
Location: Columbia
(38.9520°N, 92.3340°W)
Time: 00:14:49
(UTC-06:00)
Language:

CZ-2C R/B - Orbit

View from above orbital plane
View from above orbital plane
View from above satellite
View from above satellite

Ground track
Ground track

The orbit data is extracted from the following two-line orbital elements,

1 28480U 04046B   17347.34793691 -.00000001 +00000-0 +14680-4 0  9995
2 28480 098.1927 071.9803 0142963 056.1629 346.3195 14.25659733679741
Epoch (UTC): 13 December 2017 08:21:01
Eccentricity: 0.0142963
inclination: 98.1927°
perigee height: 703 km
apogee height: 909 km
right ascension of ascending node: 71.9803°
argument of perigee: 56.1629°
revolutions per day: 14.25659733
mean anomaly at epoch: 346.3195°
orbit number at epoch: 67974

The dashed part of the orbit path shows where the satellite is in the earth's shadow,  

DLR